This is the latest recevied weather packets stored in our database for station/object W0DXV. If no packets are shown the sender has not sent any weather packets the latest 10 day(s).
| Time | Temp. | Humidity | Pressure | Rain* | Wind** | Luminosity | Snow |
|---|---|---|---|---|---|---|---|
| 1777684544 | 13.89° C | 75% | 1009.3 hPa | 0 mm | - | 0 W/m² | - |
| 1777684240 | 13.89° C | 75% | 1009.3 hPa | 0 mm | - | 0 W/m² | - |
| 1777683938 | 13.89° C | 75% | 1009.2 hPa | 0 mm | - | 0 W/m² | - |
| 1777683634 | 14.44° C | 75% | 1009 hPa | 0 mm | - | 0 W/m² | - |
| 1777683332 | 14.44° C | 75% | 1009 hPa | 0 mm | - | 0 W/m² | - |
| 1777683029 | 14.44° C | 74% | 1009 hPa | 0 mm | - | 0 W/m² | - |
| 1777682725 | 14.44° C | 75% | 1008.8 hPa | 0 mm | - | 0 W/m² | - |
| 1777682422 | 15° C | 74% | 1008.5 hPa | 0 mm | - | 0 W/m² | - |
| 1777682120 | 15° C | 74% | 1008.7 hPa | 0 mm | - | 0 W/m² | - |
| 1777681816 | 15° C | 74% | 1008.2 hPa | 0 mm | - | 0 W/m² | - |
| 1777681513 | 15° C | 73% | 1008.3 hPa | 0 mm | - | 0 W/m² | - |
| 1777681210 | 15° C | 73% | 1008.2 hPa | 0 mm | - | 0 W/m² | - |
| 1777680908 | 15.56° C | 72% | 1008.1 hPa | 0 mm | - | 1 W/m² | - |
| 1777680605 | 15.56° C | 71% | 1008.2 hPa | 0 mm | - | 1 W/m² | - |
| 1777680303 | 15.56° C | 72% | 1008 hPa | 0 mm | - | 2 W/m² | - |
| 1777679999 | 15.56° C | 69% | 1007.9 hPa | 0 mm | - | 3 W/m² | - |
| 1777679695 | 16.11° C | 70% | 1007.8 hPa | 0 mm | - | 7 W/m² | - |
| 1777679390 | 16.11° C | 68% | 1007.8 hPa | 0 mm | - | 10 W/m² | - |
| 1777679087 | 16.11° C | 69% | 1007.6 hPa | 0 mm | - | 11 W/m² | - |
| 1777678786 | 16.67° C | 67% | 1007.4 hPa | 0 mm | - | 12 W/m² | - |
| 1777678483 | 16.67° C | 67% | 1007.8 hPa | 0 mm | - | 21 W/m² | - |
| 1777678179 | 16.67° C | 67% | 1007.8 hPa | 0 mm | - | 24 W/m² | - |
| 1777677876 | 16.67° C | 65% | 1007.8 hPa | 0 mm | - | 29 W/m² | - |
| 1777677573 | 16.67° C | 65% | 1007.7 hPa | 0 mm | - | 37 W/m² | - |
| 1777677272 | 17.22° C | 63% | 1008 hPa | 0 mm | - | 37 W/m² | - |
* Rain latest hour (hover to see other rain measurements)
** Current wind speed in m/s (hover to see current wind gust speed)